SL-16 DEB, 22410

Orbit data source: Space-Track

SL-16 DEB, 22410 is space debris in LEO originally from a launch on Fri, 25 Dec 1992 UTC launched from the Tyuratam Missile And Space Complex (TTMTR). Debris objects in space refer to the collection of defunct objects orbiting the Earth. Examples of debris include non-operational satellites, rocket bodies, and fragments generated from explosions, collisions, or faulty payload assembly.

Loading next visibility...
Identifier
22410, 1992-093DB
Orbit
LEO
Country
Flag of CISCIS
Related business
Manufacturer
Unknown
Mission
Spacecraft
Bus & Motor
Unknown
Mass
Unknown
Launch date (UTC)
1992-12-25 (33 years ago)
Launch vehicle
Unknown
Launch site
Tyuratam Missile And Space Complex (TTMTR)
Object type
Payload
Rocket body
Debris
Shape & HBR
Unknown
Radar Cross Section
Small (<0.1 m²)

Expand to show TLE details & history
Last TLE update: 10 hours ago

TLE from 10 hours ago
0 SL-16 DEB
1 22410U 92093DB  26126.95092541  .00000268  00000-0  21221-3 0  9991
2 22410  71.0850  72.5193 0105732  57.2948  14.7785 13.97346697696066
Epoch: 2026-05-06T22:49Z
TLE epoch observation values (Epoch: 2026-05-06T22:49:19.955Z)
Latitude
64.48017°
Longitude
-89.05838°
Altitude
839.182 km
Speed
7.478 km/s
True Right ascension
07h 52m 18s
True Declination
64° 20' 52"
Sunlit
Object was in daylight at epoch
Visualization orbit readout
Latitude
Unknown
Longitude
Unknown
Altitude
Unknown
Speed
Unknown
Apparent Right ascension
Unknown
Apparent Declination
Unknown
Sunlit
N/A
Visualization observer readout
Local Sidereal Time
16:21:57
Azimuth
Unknown
Elevation
Unknown
Doppler factor
Unknown
Orbital elements
Apogee altitude
977.894 km
Perigee altitude
823.968 km
Semi-major axis
7,279.068 km
Eccentricity
0.01057
Inclination
71.085°
RAAN
72.5193°
Arg. of periapsis
57.2948°
True anomaly
15.09156°
Mean anomaly
14.7785°
Eccentric anomaly
14.93462°
Mean motion
3.49486 °/min
Orbital period
103.01 mins
BSTAR
0.00021221
Loading maneuver chart data...
Computing Atmospheric mass density...
Loading historical data...
Loading historical data...
Loading historical data...
Loading historical data...
Loading historical data...
Loading historical data...
Loading historical data...

Documentation

Showing up to 5 results
|